TimeCST,TemperatureF,Dew PointF,Humidity,Sea Level PressureIn,VisibilityMPH,Wind Direction,Wind SpeedMPH,Gust SpeedMPH,PrecipitationIn,Events,Conditions,WindDirDegrees,DateUTC
12:53 AM,35.1,30.9,85,29.73,6.0,WNW,9.2,-,N/A,,Overcast,300,2012-12-17 06:53:00
1:53 AM,33.1,30.0,89,29.74,7.0,West,6.9,-,N/A,,Overcast,280,2012-12-17 07:53:00
2:53 AM,33.1,28.9,85,29.74,7.0,NW,5.8,-,N/A,,Overcast,310,2012-12-17 08:53:00
3:14 AM,32.0,28.4,87,29.71,9.0,NW,8.1,-,N/A,,Overcast,310,2012-12-17 09:14:00
3:53 AM,32.0,27.0,82,29.73,10.0,West,3.5,-,N/A,,Overcast,280,2012-12-17 09:53:00
4:53 AM,30.9,27.0,85,29.75,10.0,WNW,4.6,-,N/A,,Overcast,290,2012-12-17 10:53:00
5:53 AM,30.9,26.1,82,29.76,10.0,West,4.6,-,N/A,,Overcast,270,2012-12-17 11:53:00
6:53 AM,30.0,25.0,82,29.77,10.0,NW,3.5,-,N/A,,Overcast,320,2012-12-17 12:53:00
7:53 AM,28.9,24.1,82,29.76,6.0,North,4.6,-,N/A,,Haze,350,2012-12-17 13:53:00
8:53 AM,28.9,24.1,82,29.75,5.0,NW,5.8,-,N/A,,Haze,310,2012-12-17 14:53:00
9:53 AM,28.9,24.1,82,29.76,6.0,NNW,6.9,-,N/A,,Haze,330,2012-12-17 15:53:00
10:53 AM,28.9,24.1,82,29.75,10.0,North,6.9,-,N/A,,Overcast,360,2012-12-17 16:53:00
11:53 AM,28.9,23.0,78,29.73,10.0,Calm,Calm,-,N/A,,Mostly Cloudy,0,2012-12-17 17:53:00
12:53 PM,30.0,23.0,75,29.73,10.0,Calm,Calm,-,N/A,,Mostly Cloudy,0,2012-12-17 18:53:00
12:58 PM,30.2,23.0,75,29.70,10.0,Calm,Calm,-,N/A,,Mostly Cloudy,0,2012-12-17 18:58:00
1:53 PM,30.0,23.0,75,29.73,10.0,Calm,Calm,-,N/A,,Mostly Cloudy,0,2012-12-17 19:53:00
2:53 PM,30.0,23.0,75,29.72,10.0,North,3.5,-,N/A,,Overcast,360,2012-12-17 20:53:00
3:53 PM,30.0,23.0,75,29.73,10.0,Calm,Calm,-,N/A,,Overcast,0,2012-12-17 21:53:00
6:23 PM,26.6,23.0,86,29.70,10.0,North,4.6,-,N/A,,Mostly Cloudy,10,2012-12-18 00:23:00
6:53 PM,28.0,23.0,81,29.74,10.0,NNW,5.8,-,N/A,,Overcast,340,2012-12-18 00:53:00
7:53 PM,27.0,21.9,81,29.75,10.0,North,5.8,-,N/A,,Overcast,360,2012-12-18 01:53:00
8:53 PM,26.1,21.9,84,29.74,10.0,North,4.6,-,N/A,,Overcast,360,2012-12-18 02:53:00
9:53 PM,26.1,21.9,84,29.75,10.0,Calm,Calm,-,0.00,Snow,Light Snow,0,2012-12-18 03:53:00
10:53 PM,27.0,21.9,81,29.76,8.0,Calm,Calm,-,0.00,,Overcast,0,2012-12-18 04:53:00
11:36 PM,26.6,23.0,86,29.73,8.0,Calm,Calm,-,N/A,,Overcast,0,2012-12-18 05:36:00
11:45 PM,26.6,21.2,80,29.73,8.0,Calm,Calm,-,N/A,,Overcast,0,2012-12-18 05:45:00
11:53 PM,27.0,21.9,81,29.77,8.0,Calm,Calm,-,N/A,,Overcast,0,2012-12-18 05:53:00